Location: Igri�s
(42.2144°N, 0.4320°W)
Time: 17:12:32
(UTC+00:00)

Cosmos 1814 Rocket - Pass Details

Date: 13 August 2020
Orbit: 744 x 788 km, 74.1° (Epoch: 18 September)

Event Time Altitude Azimuth Distance (km) Brightness Sun altitude
Rises 22:03:27 0° 339° (NNW) 3,226 8.4 -26.8°
Reaches altitude 10° 22:05:49 10° 340° (NNW) 2,303 7.4 -27.0°
Enters shadow 22:10:48 82° 332° (NNW) 782 4.0 -27.5°
